Weather History for El Centro, CA

Change the Weather History Date:

Tuesday, January 8, 2013

  Actual Average Record
Temperature  
Mean Temperature 57 °F -  
Max Temperature 75 °F 67 °F 79 °F (2002)
Min Temperature 39 °F 44 °F 36 °F (2000)
Degree Days  
Heating Degree Days 8    
Growing Degree Days 7 (Base 50)    
Moisture  
Dew Point 30 °F    
Average Humidity 41    
Maximum Humidity 65    
Minimum Humidity 18    
Precipitation  
Precipitation 0.00 in - - ()
Sea Level Pressure  
Sea Level Pressure 30.08 in    
Wind  
Wind Speed 8 mph (West)    
Max Wind Speed 13 mph    
Max Gust Speed -    
Visibility 10 miles    
Events      
Averages and records for this station are not official NWS values.
T = Trace of Precipitation, MM = Missing Value Source: NWS Daily Summary

Daily Weather History Graph

Daily Weather History Graph

Search for Another Location

Airport:

Trip Planner

Search our weather history database for the weather conditions in past years. The results will help you decide how hot, cold, wet, or windy it might be!

Date:

Astronomy

Jan. 08, 2013 Rise Set
Actual Time 6:45 AM PST 4:53 PM PST
Civil Twilight 6:18 AM PST 5:20 PM PST
Nautical Twilight 5:48 AM PST 5:50 PM PST
Astronomical Twilight 5:18 AM PST 6:20 PM PST
Moon 3:24 AM PST (1/8) 1:59 PM PST (1/8)
Length of Visible Light 11h 01m
Length of Day
10h 07m
Waning Crescent, 13% of the Moon is Illuminated
Jan 8
Waning Crescent
Jan 11
New
Jan 18
First Quarter
Jan 26
Full
Feb 3
Last Quarter

Hourly Weather History & Observations

Time (PST) Temp. Windchill Dew Point Humidity Pressure Visibility Wind Dir Wind Speed Gust Speed Precip Events Conditions
12:56 AM 41.0 °F 35.8 °F 28.9 °F 62% 30.01 in 10.0 mi West 8.1 mph - N/A   Clear
1:56 AM 39.9 °F 32.9 °F 28.9 °F 65% 30.02 in 10.0 mi West 11.5 mph - N/A   Clear
2:56 AM 39.9 °F 32.9 °F 28.9 °F 65% 30.02 in 10.0 mi West 11.5 mph - N/A   Clear
3:56 AM 42.1 °F 36.1 °F 27.0 °F 55% 30.01 in 10.0 mi West 10.4 mph - N/A   Clear
4:56 AM 46.0 °F 40.2 °F 26.1 °F 46% 30.03 in 10.0 mi West 12.7 mph - N/A   Clear
5:56 AM 41.0 °F 35.8 °F 27.0 °F 57% 30.05 in 10.0 mi West 8.1 mph - N/A   Clear
6:56 AM 39.9 °F 35.1 °F 27.0 °F 60% 30.07 in 10.0 mi West 6.9 mph - N/A   Partly Cloudy
7:56 AM 46.0 °F 43.9 °F 28.9 °F 51% 30.11 in 10.0 mi West 4.6 mph - N/A   Clear
8:56 AM 55.0 °F - 30.9 °F 40% 30.12 in 10.0 mi WSW 6.9 mph - N/A   Clear
9:56 AM 62.1 °F - 28.9 °F 29% 30.13 in 10.0 mi SSW 3.5 mph - N/A   Clear
10:56 AM 69.1 °F - 30.0 °F 23% 30.11 in 10.0 mi West 6.9 mph - N/A   Clear
11:56 AM 73.0 °F - 28.9 °F 20% 30.08 in 10.0 mi NNW 4.6 mph - N/A   Clear
12:56 PM 75.0 °F - 28.9 °F 18% 30.06 in 10.0 mi North 4.6 mph - N/A   Clear
1:56 PM 75.9 °F - 28.9 °F 18% 30.05 in 10.0 mi NW 3.5 mph - N/A   Clear
2:56 PM 75.9 °F - 28.9 °F 18% 30.06 in 10.0 mi WNW 4.6 mph - N/A   Clear
3:56 PM 75.0 °F - 30.9 °F 20% 30.06 in 10.0 mi West 6.9 mph - N/A   Clear
4:56 PM 68.0 °F - 36.0 °F 31% 30.06 in 10.0 mi WSW 6.9 mph - N/A   Clear
5:56 PM 64.0 °F - 33.1 °F 31% 30.08 in 10.0 mi SW 3.5 mph - N/A   Clear
6:56 PM 59.0 °F - 33.1 °F 38% 30.10 in 10.0 mi West 5.8 mph - N/A   Clear
7:56 PM 57.0 °F - 35.1 °F 44% 30.11 in 10.0 mi West 6.9 mph - N/A   Clear
8:56 PM 53.1 °F - 35.1 °F 50% 30.11 in 10.0 mi WSW 5.8 mph - N/A   Clear
9:56 PM 51.1 °F - 34.0 °F 52% 30.13 in 10.0 mi WSW 5.8 mph - N/A   Clear
10:56 PM 52.0 °F - 32.0 °F 47% 30.14 in 10.0 mi SW 5.8 mph - N/A   Clear
11:56 PM 48.9 °F - 33.1 °F 54% 30.14 in 10.0 mi WSW 8.1 mph - N/A   Clear